Wind_Speed
17 16 16 16 17 16 17 16 16 16 16 17 17 17 17 15 15 15 16 16 16 17 17 18 18 19 19 19 19 19 19 19 20 20 20 20 20 20 20 21 21 22 23
17 16 17 17 16 17 17 16 16 16 17 17 17 17 17 16 16 16 16 17 17 18 18 18 19 19 20 20 19 20 20 20 21 21 22 22 21 21 22 23 23 23 23
19 18 17 16 16 17 16 16 17 17 17 17 17 17 17 16 17 17 17 18 18 18 19 19 20 19 19 20 19 20 20 20 20 21 22 22 21 21 23 24 24 23 24
19 18 17 16 16 17 18 18 18 18 18 18 18 18 17 17 17 18 18 19 19 18 19 19 19 19 19 18 19 19 20 20 20 21 22 22 22 22 23 23 24 24 25
18 18 18 17 16 17 19 19 18 18 19 19 19 19 18 18 18 17 17 18 18 18 19 20 20 20 20 20 19 20 20 21 22 22 22 22 22 22 23 24 25 26 27
17 17 18 18 17 18 18 19 19 19 20 20 20 20 19 19 18 18 18 18 19 19 19 20 21 22 21 21 21 22 22 22 23 23 23 23 24 24 24 24 25 26 27
18 17 19 19 19 19 19 19 20 20 21 21 21 21 20 20 19 19 19 19 19 20 20 21 21 22 22 21 22 23 23 24 25 25 23 24 24 25 26 26 26 26 26
18 18 19 19 20 20 19 20 21 21 22 22 21 21 21 21 20 21 21 20 20 21 21 21 21 21 22 22 23 23 23 24 24 25 24 25 25 26 26 27 27 26 26
19 18 18 18 19 20 20 22 21 22 22 22 22 22 21 21 21 22 21 21 22 22 23 23 23 22 22 23 23 23 24 24 24 25 25 26 27 27 27 27 26 27 27
19 19 19 20 19 20 20 22 22 23 22 23 23 23 22 22 22 22 21 22 22 23 23 23 24 23 24 24 23 24 25 25 26 26 26 27 27 27 26 27 27 28 28
19 19 20 22 21 21 22 23 23 22 22 22 23 22 22 23 23 22 22 22 22 23 23 24 24 24 24 25 24 24 25 25 26 27 27 27 27 26 26 26 26 26 27
20 20 21 23 23 23 23 24 23 21 21 22 22 22 23 23 23 22 23 23 22 22 23 24 24 24 24 24 24 25 26 26 26 26 26 26 26 26 26 26 26 27 28
20 21 22 24 23 23 24 24 23 21 22 22 22 22 23 23 23 23 23 23 23 23 23 24 24 24 24 24 25 26 26 26 26 26 25 26 27 27 27 27 28 28 28
21 22 22 23 24 25 24 24 24 22 23 23 23 23 23 23 22 22 23 23 24 23 24 24 24 24 25 25 25 26 26 27 27 27 26 26 27 26 27 28 28 28 28
23 22 23 24 24 25 24 23 23 23 23 23 22 22 22 22 22 22 22 22 23 23 24 24 24 25 25 26 25 25 26 27 27 27 27 27 27 27 27 28 28 28 28
23 23 23 22 23 23 23 22 22 22 22 23 23 22 21 22 22 22 23 23 24 24 24 25 25 26 26 26 26 26 26 27 27 27 27 28 29 29 28 28 28 28 27
24 23 22 23 23 22 21 21 21 22 22 22 22 22 23 23 23 23 24 25 25 25 25 25 26 26 26 26 26 26 26 26 26 26 27 28 29 29 29 29 28 28 28
23 22 23 24 23 22 22 23 23 22 23 22 23 23 24 24 24 25 25 25 26 25 26 26 26 26 26 26 25 26 26 26 25 26 27 27 27 28 28 28 28 28 28
23 23 23 23 23 23 23 23 23 22 22 22 23 23 24 25 24 24 25 25 26 26 27 28 27 27 26 26 26 26 26 26 26 26 26 26 26 26 27 28 28 28 28
24 24 23 23 23 23 23 23 22 22 22 22 23 24 24 24 24 25 26 26 27 27 27 27 27 27 26 26 26 26 27 27 27 26 25 26 26 25 26 26 27 27 28
24 24 24 23 24 24 24 24 24 24 24 24 24 24 24 24 25 26 26 27 27 27 27 26 26 27 27 26 26 27 27 27 26 25 25 25 26 26 26 26 26 26 27
25 25 24 24 24 24 24 24 25 24 25 25 25 24 24 24 25 26 27 27 27 27 27 26 26 26 26 26 26 26 27 27 26 25 25 25 25 25 25 25 25 26 27
26 26 25 25 25 25 25 25 25 25 25 25 25 25 24 25 25 26 27 27 26 26 26 26 26 26 26 26 26 26 26 27 26 25 24 23 23 24 24 24 24 25 26
28 27 26 26 26 26 25 26 25 25 25 25 26 25 25 26 26 26 27 26 26 25 25 25 25 25 25 25 26 26 26 26 26 25 24 23 23 23 23 23 24 25 26
28 27 26 27 27 27 26 26 26 26 26 26 26 26 26 26 26 26 26 26 26 26 25 25 25 25 25 26 26 25 25 25 25 24 23 23 23 23 24 24 24 25 26
27 27 27 27 26 27 26 26 26 26 25 25 26 26 26 26 26 26 26 26 26 26 25 25 25 26 26 26 25 25 24 24 24 23 23 23 24 24 25 25 25 26 27
Wind_Direction
301 303 305 302 302 301 302 303 305 305 303 304 304 301 297 292 289 287 285 285 283 282 282 283 284 278 277 278 277 277 272 269 266 264 262 262 263 263 261 261 260 257 253
299 297 300 300 300 302 300 302 305 304 303 303 304 303 300 294 288 286 284 283 283 282 281 282 282 279 278 278 276 276 273 271 267 265 264 264 263 264 263 261 259 256 254
296 295 292 295 298 300 300 301 300 301 302 301 303 302 299 296 290 288 286 284 283 282 280 281 280 279 279 279 277 274 273 272 271 268 266 264 263 264 265 263 259 255 255
295 295 293 295 297 298 298 296 297 299 301 300 300 301 300 297 294 292 287 285 283 282 281 281 279 279 281 279 277 277 273 271 272 270 267 265 265 266 264 263 261 259 259
294 292 294 294 295 295 294 295 296 299 300 300 300 300 299 298 297 295 292 288 286 283 281 281 280 279 279 281 279 277 274 273 271 270 268 268 269 269 267 265 264 263 263
291 291 294 294 291 291 294 292 295 298 300 298 298 299 298 298 297 296 295 291 288 287 286 281 282 279 278 277 278 278 275 273 272 270 270 270 271 272 270 267 266 267 265
288 288 290 292 294 294 293 292 292 295 297 296 295 296 295 295 294 294 293 292 292 291 290 286 284 282 278 277 278 279 277 274 271 270 272 272 271 271 270 269 266 266 266
286 285 286 290 293 296 294 293 293 293 295 294 295 294 293 292 291 290 291 291 290 289 288 286 286 285 282 280 278 277 275 274 274 272 273 272 272 272 271 269 267 265 266
284 282 285 288 291 295 293 292 293 292 294 295 294 295 292 291 291 290 290 290 289 288 287 286 286 285 283 283 279 276 276 274 273 274 273 273 272 270 269 268 267 266 266
289 284 286 287 289 290 291 292 292 292 292 292 292 293 293 293 292 289 289 292 292 289 288 287 287 284 283 283 279 278 277 275 273 271 272 273 272 269 268 268 266 265 265
292 288 286 285 287 289 290 291 293 291 292 294 292 293 294 295 292 289 289 290 290 288 287 287 286 284 283 281 280 279 279 278 276 273 273 272 269 268 269 268 266 266 266
293 286 283 284 288 290 291 294 294 292 292 294 293 294 295 295 293 290 290 291 291 288 286 286 286 285 284 282 281 281 279 280 277 275 274 271 270 270 269 267 266 267 268
291 288 284 286 290 291 294 298 297 294 295 295 295 295 296 295 293 291 290 291 291 288 287 287 286 285 287 285 284 283 280 279 276 275 273 271 271 271 269 268 267 267 267
292 291 290 293 295 296 297 295 295 293 294 295 295 295 295 294 293 292 289 290 290 289 288 286 285 286 288 287 285 284 281 278 276 276 273 271 271 271 270 269 268 267 266
292 291 292 294 295 297 296 294 293 292 294 295 296 295 294 295 295 292 291 292 291 289 288 287 287 287 288 287 286 284 281 278 277 276 274 273 272 270 270 269 268 266 265
291 292 293 293 296 295 293 293 292 292 292 293 294 294 295 295 294 293 293 293 293 292 291 290 289 289 288 289 288 286 284 281 278 277 274 274 273 271 270 269 268 266 266
290 292 295 296 295 294 292 290 291 292 293 294 294 294 295 295 294 293 292 293 294 292 291 292 291 291 291 291 288 287 286 284 282 279 276 274 273 271 270 269 267 266 267
293 294 295 296 290 289 289 291 292 294 295 295 294 294 294 295 294 294 293 294 293 293 293 293 292 292 292 291 289 288 286 285 284 282 280 277 275 272 270 268 266 266 267
293 294 293 293 290 289 290 291 291 292 294 294 294 295 297 296 297 297 297 297 295 294 293 292 292 292 291 291 290 290 289 287 286 285 281 278 275 274 271 269 267 266 266
291 292 292 291 288 288 289 291 293 294 296 297 299 300 300 299 300 299 298 298 298 296 294 291 292 293 292 291 290 289 289 288 287 285 282 279 277 275 273 271 268 267 266
286 287 289 289 287 287 288 290 292 294 295 295 297 298 299 299 299 299 299 299 298 297 296 294 293 293 293 292 292 290 289 289 288 284 282 280 277 275 273 271 269 269 269
284 287 288 287 285 286 288 290 290 292 292 293 294 296 296 297 298 299 300 301 300 298 297 295 294 293 293 293 291 291 290 289 288 285 282 280 278 275 274 272 270 270 270
285 285 287 286 284 285 287 288 290 291 290 292 293 294 295 297 298 299 301 302 302 301 299 296 295 295 294 294 292 291 291 289 286 284 283 281 278 275 275 273 272 271 270
283 284 285 286 285 285 287 289 289 289 290 291 292 293 295 297 297 298 299 301 302 302 300 297 297 297 296 297 296 293 290 289 286 284 282 280 279 278 278 275 273 272 271
282 281 284 284 284 284 285 286 288 289 290 291 291 293 296 297 298 298 300 300 301 301 300 299 300 300 299 299 298 296 293 290 288 286 283 279 279 279 279 278 276 274 274
281 283 284 283 283 284 284 284 285 288 290 291 293 294 296 297 297 298 300 300 300 299 298 299 301 301 301 301 299 296 294 291 288 286 284 281 281 281 281 280 277 276 276
Height
5864 5863 5861 5859 5857 5856 5854 5853 5851 5850 5848 5847 5845 5844 5842 5841 5840 5839 5838 5837 5836 5836 5835 5834 5833 5832 5832 5831 5830 5830 5830 5830 5830 5830 5831 5831 5832 5832 5833 5833 5834 5834 5835
5860 5859 5858 5856 5854 5852 5851 5849 5848 5846 5845 5843 5842 5840 5838 5837 5836 5835 5834 5833 5832 5831 5830 5829 5828 5826 5825 5825 5824 5824 5824 5824 5824 5824 5824 5825 5826 5826 5827 5827 5827 5828 5828
5856 5855 5853 5852 5850 5849 5847 5846 5844 5843 5841 5840 5838 5836 5834 5833 5832 5830 5829 5828 5827 5826 5825 5824 5822 5821 5820 5819 5818 5818 5818 5818 5818 5818 5819 5819 5820 5820 5820 5821 5821 5822 5823
5851 5849 5848 5847 5846 5845 5843 5842 5840 5839 5837 5836 5834 5832 5830 5829 5827 5825 5824 5823 5821 5820 5819 5818 5817 5816 5815 5814 5813 5813 5812 5812 5812 5812 5812 5813 5813 5814 5814 5814 5815 5815 5816
5846 5844 5843 5843 5842 5840 5839 5837 5835 5834 5832 5831 5829 5827 5826 5824 5822 5821 5819 5818 5816 5815 5814 5812 5811 5810 5809 5808 5807 5807 5806 5806 5805 5805 5805 5806 5806 5807 5808 5808 5809 5808 5809
5840 5839 5838 5837 5837 5835 5834 5832 5831 5829 5828 5826 5824 5822 5821 5819 5817 5816 5814 5813 5811 5809 5808 5806 5805 5804 5803 5802 5801 5800 5799 5799 5799 5799 5799 5799 5799 5800 5800 5801 5801 5801 5801
5834 5833 5833 5832 5831 5830 5829 5828 5826 5825 5823 5821 5819 5817 5815 5814 5812 5811 5809 5808 5806 5804 5802 5801 5799 5797 5796 5795 5795 5794 5793 5792 5792 5791 5792 5792 5792 5792 5793 5793 5794 5794 5794
5829 5828 5827 5827 5826 5825 5824 5822 5821 5820 5818 5816 5814 5812 5810 5808 5807 5806 5804 5802 5800 5798 5797 5794 5793 5791 5790 5788 5787 5787 5786 5785 5785 5784 5784 5785 5784 5784 5785 5785 5786 5786 5786
5823 5823 5822 5822 5821 5820 5819 5818 5816 5814 5813 5810 5808 5806 5805 5803 5801 5799 5797 5796 5794 5792 5790 5788 5786 5785 5783 5782 5781 5780 5779 5779 5778 5777 5777 5777 5777 5776 5776 5777 5777 5778 5778
5819 5818 5818 5817 5816 5816 5815 5813 5811 5809 5807 5805 5803 5801 5799 5797 5794 5793 5791 5789 5787 5786 5784 5782 5780 5778 5777 5775 5774 5773 5772 5771 5770 5770 5769 5769 5769 5768 5768 5769 5769 5769 5770
5813 5812 5812 5811 5809 5809 5808 5807 5805 5802 5800 5799 5797 5795 5793 5790 5788 5786 5784 5783 5781 5779 5777 5775 5773 5771 5769 5768 5767 5766 5764 5763 5762 5762 5761 5760 5760 5760 5760 5761 5761 5761 5761
5808 5807 5806 5806 5804 5803 5802 5800 5798 5796 5794 5792 5791 5788 5786 5784 5781 5779 5778 5776 5774 5772 5770 5769 5766 5764 5762 5761 5759 5758 5757 5755 5754 5753 5753 5752 5752 5753 5752 5752 5753 5753 5753
5803 5802 5801 5799 5798 5797 5796 5794 5791 5790 5788 5786 5784 5782 5780 5778 5775 5773 5772 5770 5767 5766 5764 5762 5760 5757 5756 5754 5752 5750 5749 5748 5747 5746 5745 5744 5744 5744 5744 5744 5744 5744 5744
5798 5796 5795 5793 5792 5791 5790 5788 5786 5784 5782 5780 5778 5776 5774 5772 5770 5767 5765 5763 5761 5759 5757 5755 5753 5751 5749 5747 5745 5743 5741 5740 5739 5738 5737 5736 5735 5735 5735 5735 5735 5735 5735
5792 5790 5789 5788 5787 5785 5783 5782 5780 5778 5777 5775 5772 5770 5768 5765 5763 5761 5759 5757 5755 5753 5751 5748 5746 5744 5742 5740 5737 5735 5733 5732 5730 5729 5728 5728 5727 5727 5726 5726 5726 5726 5726
5787 5785 5784 5782 5780 5778 5777 5775 5774 5773 5771 5769 5767 5764 5762 5760 5757 5755 5753 5750 5748 5746 5744 5741 5739 5737 5735 5732 5730 5728 5726 5724 5723 5721 5720 5719 5719 5718 5717 5717 5717 5717 5718
5782 5779 5778 5776 5774 5773 5771 5770 5768 5766 5764 5763 5761 5758 5756 5754 5751 5749 5746 5744 5742 5739 5737 5734 5732 5730 5727 5725 5722 5720 5718 5717 5715 5713 5712 5711 5710 5709 5708 5708 5708 5708 5708
5776 5774 5773 5771 5769 5767 5766 5764 5763 5761 5759 5756 5754 5752 5750 5747 5745 5742 5739 5737 5734 5732 5730 5727 5725 5722 5720 5717 5715 5713 5711 5709 5707 5705 5704 5703 5701 5700 5700 5699 5699 5699 5700
5770 5768 5767 5765 5763 5762 5760 5758 5756 5755 5753 5751 5748 5746 5743 5741 5738 5735 5732 5730 5727 5725 5722 5719 5717 5715 5712 5710 5707 5705 5703 5701 5699 5697 5695 5694 5693 5692 5691 5691 5691 5691 5691
5764 5762 5761 5759 5757 5756 5754 5752 5751 5749 5747 5745 5742 5740 5737 5734 5731 5728 5726 5723 5720 5717 5714 5711 5709 5707 5704 5702 5700 5697 5695 5693 5691 5689 5687 5686 5685 5684 5683 5682 5682 5682 5682
5757 5756 5754 5753 5751 5749 5748 5746 5745 5743 5741 5739 5736 5734 5731 5728 5725 5722 5719 5715 5712 5709 5706 5703 5701 5699 5696 5694 5691 5689 5687 5685 5683 5681 5679 5678 5676 5675 5674 5674 5674 5674 5673
5750 5748 5747 5746 5745 5743 5741 5740 5738 5736 5734 5731 5729 5727 5724 5721 5718 5715 5712 5708 5705 5701 5698 5695 5693 5690 5688 5686 5683 5681 5678 5676 5674 5673 5671 5670 5668 5667 5666 5666 5665 5665 5664
5742 5740 5739 5739 5738 5736 5734 5733 5731 5729 5727 5724 5722 5720 5717 5715 5712 5708 5705 5701 5697 5694 5690 5688 5685 5683 5680 5678 5675 5672 5670 5668 5666 5664 5663 5661 5660 5659 5658 5658 5657 5657 5656
5734 5732 5731 5731 5730 5729 5727 5726 5724 5721 5719 5717 5715 5713 5710 5708 5705 5701 5698 5694 5691 5687 5684 5681 5678 5675 5672 5669 5667 5664 5662 5659 5657 5656 5655 5654 5653 5652 5651 5650 5649 5648 5648
5726 5725 5723 5723 5722 5721 5719 5718 5716 5714 5712 5710 5708 5705 5703 5700 5697 5694 5690 5687 5684 5680 5677 5674 5671 5668 5665 5661 5658 5656 5654 5652 5650 5648 5647 5646 5645 5644 5643 5642 5641 5640 5639
5717 5716 5715 5715 5714 5712 5711 5710 5708 5707 5705 5702 5700 5698 5695 5693 5690 5687 5683 5679 5676 5673 5670 5667 5664 5660 5657 5653 5651 5648 5646 5644 5642 5640 5639 5638 5637 5636 5635 5634 5633 5632 5631